Weather History for Port Aransas, TX

Change the Weather History Date:

Thursday, January 24, 2013

  Actual Average (KCRP) Record (KCRP)
Temperature  
Mean Temperature 63 °F 57 °F  
Max Temperature 69 °F 67 °F 87 °F (1972)
Min Temperature 57 °F 48 °F 18 °F (1963)
Degree Days  
Heating Degree Days 2 8  
Month to date heating degree days 215  
Since 1 July heating degree days 566  
Cooling Degree Days 0 1  
Month to date cooling degree days 24  
Year to date cooling degree days 24  
Growing Degree Days 13 (Base 50)    
Moisture  
Dew Point 60 °F    
Average Humidity 92    
Maximum Humidity 100    
Minimum Humidity 78    
Precipitation  
Precipitation 0.00 in 0.05 in 1.36 in (2007)
Month to date precipitation 1.20  
Year to date precipitation 1.20  
Snow  
Snow 0.00 in - - ()
Month to date snowfall  
Since 1 July snowfall  
Snow Depth -    
Sea Level Pressure  
Sea Level Pressure 30.22 in    
Wind  
Wind Speed 7 mph (South)    
Max Wind Speed 14 mph    
Max Gust Speed 18 mph    
Visibility 8 miles    
Events      
T = Trace of Precipitation, MM = Missing Value Source: NWS Daily Summary

Daily Weather History Graph

Daily Weather History Graph

Search for Another Location

Airport:

Trip Planner

Search our weather history database for the weather conditions in past years. The results will help you decide how hot, cold, wet, or windy it might be!

Date:

Astronomy

Jan. 24, 2013 Rise Set
Actual Time 7:18 AM CST 6:02 PM CST
Civil Twilight 6:53 AM CST 6:27 PM CST
Nautical Twilight 6:25 AM CST 6:56 PM CST
Astronomical Twilight 5:57 AM CST 7:24 PM CST
Moon 4:08 PM CST (1/24) 5:13 AM CST (1/24)
Length of Visible Light 11h 34m
Length of Day
10h 44m
Waxing Gibbous, 94% of the Moon is Illuminated
Jan 24
Waxing Gibbous
Jan 26
Full
Feb 3
Last Quarter
Feb 10
New
Feb 17
First Quarter

Hourly Weather History & Observations

Time (CST) Temp. Dew Point Humidity Pressure Visibility Wind Dir Wind Speed Gust Speed Precip Events Conditions
12:15 AM 59.0 °F 59.0 °F 100% 30.25 in 7.0 mi South 5.8 mph - N/A   Clear
12:35 AM 59.0 °F 59.0 °F 100% 30.25 in 7.0 mi South 4.6 mph - N/A   Clear
12:55 AM 59.0 °F 59.0 °F 100% 30.25 in 7.0 mi South 3.5 mph - N/A   Clear
1:15 AM 59.0 °F 59.0 °F 100% 30.25 in 7.0 mi South 3.5 mph - N/A   Clear
1:55 AM 59.0 °F 59.0 °F 100% 30.24 in 7.0 mi South 4.6 mph - N/A   Clear
2:15 AM 59.0 °F 59.0 °F 100% 30.24 in 7.0 mi South 5.8 mph - N/A   Clear
2:35 AM 59.0 °F 59.0 °F 100% 30.24 in 7.0 mi South 5.8 mph - N/A   Clear
2:55 AM 59.0 °F 59.0 °F 100% 30.24 in 7.0 mi South 6.9 mph - N/A   Clear
3:15 AM 59.0 °F 59.0 °F 100% 30.24 in 10.0 mi SSW 6.9 mph - N/A   Clear
3:35 AM 59.0 °F 59.0 °F 100% 30.23 in 10.0 mi SSW 8.1 mph - N/A   Clear
3:55 AM 59.0 °F 59.0 °F 100% 30.23 in 10.0 mi South 6.9 mph - N/A   Clear
4:15 AM 59.0 °F 57.2 °F 94% 30.24 in 7.0 mi South 5.8 mph - N/A   Clear
4:35 AM 59.0 °F 57.2 °F 94% 30.24 in 7.0 mi South 4.6 mph - N/A   Clear
4:55 AM 59.0 °F 57.2 °F 94% 30.24 in 7.0 mi South 4.6 mph - N/A   Clear
5:15 AM 57.2 °F 57.2 °F 100% 30.24 in 7.0 mi SSE 4.6 mph - N/A   Clear
5:35 AM 57.2 °F 55.4 °F 94% 30.23 in 7.0 mi SSE 5.8 mph - N/A   Clear
5:55 AM 57.2 °F 55.4 °F 94% 30.23 in 7.0 mi SSE 5.8 mph - N/A   Clear
6:15 AM 57.2 °F 57.2 °F 100% 30.24 in 7.0 mi South 4.6 mph - N/A   Clear
6:35 AM 57.2 °F 55.4 °F 94% 30.24 in 7.0 mi South 4.6 mph - N/A   Clear
6:55 AM 57.2 °F 57.2 °F 100% 30.24 in 7.0 mi South 4.6 mph - N/A   Clear
7:15 AM 57.2 °F 57.2 °F 100% 30.25 in 5.0 mi South 4.6 mph - N/A   Clear
7:35 AM 59.0 °F 57.2 °F 94% 30.25 in 5.0 mi South 4.6 mph - N/A   Clear
7:55 AM 59.0 °F 59.0 °F 100% 30.25 in 5.0 mi South 4.6 mph - N/A   Clear
8:15 AM 60.8 °F 59.0 °F 94% 30.26 in 5.0 mi South 4.6 mph - N/A   Clear
8:35 AM 60.8 °F 60.8 °F 100% 30.27 in 7.0 mi South 4.6 mph - N/A   Clear
8:55 AM 62.6 °F 60.8 °F 94% 30.28 in 7.0 mi South 5.8 mph - N/A   Clear
9:15 AM 64.4 °F 62.6 °F 94% 30.29 in 10.0 mi South 5.8 mph - N/A   Clear
9:35 AM 64.4 °F 62.6 °F 94% 30.30 in 10.0 mi SSW 5.8 mph - N/A   Clear
9:55 AM 66.2 °F 62.6 °F 88% 30.30 in 10.0 mi South 8.1 mph - N/A   Clear
10:15 AM 66.2 °F 62.6 °F 88% 30.30 in 10.0 mi South 6.9 mph - N/A   Clear
10:35 AM 68.0 °F 62.6 °F 83% 30.30 in 10.0 mi South 9.2 mph - N/A   Clear
10:55 AM 68.0 °F 62.6 °F 83% 30.30 in 10.0 mi South 9.2 mph - N/A   Clear
11:15 AM 69.8 °F 62.6 °F 78% 30.30 in 10.0 mi South 11.5 mph - N/A   Clear
11:35 AM 69.8 °F 62.6 °F 78% 30.29 in 10.0 mi South 10.4 mph - N/A   Clear
11:55 AM 69.8 °F 62.6 °F 78% 30.28 in 10.0 mi South 10.4 mph - N/A   Clear
12:15 PM 69.8 °F 62.6 °F 78% 30.27 in 10.0 mi South 12.7 mph - N/A   Clear
12:35 PM 69.8 °F 62.6 °F 78% 30.25 in 10.0 mi South 11.5 mph - N/A   Clear
12:55 PM 69.8 °F 62.6 °F 78% 30.24 in 10.0 mi South 9.2 mph - N/A   Clear
1:35 PM 69.8 °F 62.6 °F 78% 30.21 in 10.0 mi South 9.2 mph - N/A   Clear
1:55 PM 68.0 °F 62.6 °F 83% 30.19 in 10.0 mi SSE 11.5 mph - N/A   Clear
2:15 PM 68.0 °F 62.6 °F 83% 30.18 in 10.0 mi SSE 12.7 mph - N/A   Clear
2:35 PM 68.0 °F 62.6 °F 83% 30.18 in 10.0 mi SSE 11.5 mph - N/A   Clear
2:55 PM 68.0 °F 62.6 °F 83% 30.17 in 10.0 mi SSE 13.8 mph - N/A   Clear
3:15 PM 68.0 °F 62.6 °F 83% 30.16 in 10.0 mi SSE 13.8 mph 18.4 mph N/A   Clear
3:35 PM 68.0 °F 62.6 °F 83% 30.16 in 10.0 mi SSE 13.8 mph - N/A   Clear
3:55 PM 68.0 °F 60.8 °F 78% 30.16 in 10.0 mi SSE 11.5 mph - N/A   Clear
4:15 PM 68.0 °F 60.8 °F 78% 30.16 in 10.0 mi SSE 10.4 mph - N/A   Clear
4:35 PM 66.2 °F 60.8 °F 83% 30.16 in 10.0 mi SSE 10.4 mph - N/A   Clear
4:55 PM 64.4 °F 60.8 °F 88% 30.16 in 10.0 mi SSE 10.4 mph - N/A   Clear
5:15 PM 64.4 °F 60.8 °F 88% 30.16 in 10.0 mi SSE 9.2 mph - N/A   Clear
5:35 PM 62.6 °F 60.8 °F 94% 30.16 in 10.0 mi SSE 6.9 mph - N/A   Clear
5:55 PM 62.6 °F 60.8 °F 94% 30.17 in 10.0 mi SSE 5.8 mph - N/A   Clear
6:15 PM 62.6 °F 60.8 °F 94% 30.17 in 7.0 mi SE 8.1 mph - N/A   Clear
6:35 PM 62.6 °F 60.8 °F 94% 30.17 in 10.0 mi SSE 8.1 mph - N/A   Clear
6:55 PM 62.6 °F 60.8 °F 94% 30.17 in 10.0 mi SSE 9.2 mph - N/A   Clear
7:15 PM 62.6 °F 60.8 °F 94% 30.17 in 10.0 mi SSE 6.9 mph - N/A   Clear
7:35 PM 62.6 °F 60.8 °F 94% 30.17 in 10.0 mi SSE 8.1 mph - N/A   Clear
7:55 PM 62.6 °F 60.8 °F 94% 30.18 in 10.0 mi SSE 8.1 mph - N/A   Clear
8:15 PM 62.6 °F 60.8 °F 94% 30.18 in 10.0 mi South 10.4 mph - N/A   Clear
8:35 PM 62.6 °F 60.8 °F 94% 30.18 in 7.0 mi South 6.9 mph - N/A   Clear
8:55 PM 62.6 °F 60.8 °F 94% 30.18 in 7.0 mi South 9.2 mph - N/A   Clear
9:15 PM 62.6 °F 60.8 °F 94% 30.18 in 7.0 mi South 9.2 mph - N/A   Clear
9:35 PM 60.8 °F 60.8 °F 100% 30.18 in 7.0 mi South 10.4 mph - N/A   Clear
9:55 PM 60.8 °F 60.8 °F 100% 30.18 in 7.0 mi South 9.2 mph - N/A   Clear
10:15 PM 60.8 °F 60.8 °F 100% 30.18 in 7.0 mi South 9.2 mph - N/A   Clear
10:35 PM 60.8 °F 60.8 °F 100% 30.18 in 7.0 mi South 8.1 mph - N/A   Clear
10:55 PM 60.8 °F 60.8 °F 100% 30.18 in 7.0 mi South 8.1 mph - N/A   Clear
11:15 PM 60.8 °F 60.8 °F 100% 30.18 in 7.0 mi South 8.1 mph - N/A   Clear
11:35 PM 60.8 °F 59.0 °F 94% 30.18 in 7.0 mi South 6.9 mph - N/A   Clear
11:55 PM 60.8 °F 60.8 °F 100% 30.18 in 7.0 mi South 5.8 mph - N/A   Clear